Capo Palinuro, Italy

1:48 PM CEST on March 28, 2017 (GMT +0200)
Capo Palinuro

Weather History for LIQK - March, 2014

Change the Weather History Date:

Saturday, March 29, 2014

  Actual Average Record
Temperature  
Mean Temperature 80 °F -  
Max Temperature 111 °F 63 °F - ()
Min Temperature 50 °F 51 °F - ()
Cooling Degree Days 16    
Growing Degree Days 30 (Base 50)    
Moisture  
Dew Point 48 °F    
Average Humidity 68    
Maximum Humidity 85    
Minimum Humidity 52    
Precipitation  
Precipitation 0.00 in 0.08 in - ()
Sea Level Pressure  
Sea Level Pressure 30.07 in    
Wind  
Wind Speed 6 mph ()    
Max Wind Speed 9 mph    
Max Gust Speed -    
Visibility 9.1 miles    
Events      
T = Trace of Precipitation, MM = Missing Value Source: Averaged Metar Reports

Daily Weather History Graph

Daily Weather History Graph

Search for Another Location

Airport or City:

Trip Planner

Search our weather history database for the weather conditions in past years. The results will help you decide how hot, cold, wet, or windy it might be!

Date:

Astronomy

Mar. 29, 2014 Rise Set
Actual Time 5:48 AM CET 6:19 PM CET
Civil Twilight 5:20 AM CET 6:47 PM CET
Nautical Twilight 4:48 AM CET 7:19 PM CET
Astronomical Twilight 4:16 AM CET 7:52 PM CET
Moon 4:45 AM CET (3/29) 5:05 PM CET (3/29)
Length of Visible Light 13h 26m
Length of Day
12h 31m
Waning Crescent, 2% of the Moon is Illuminated
Mar 29
Waning Crescent
Mar 30
New
Apr 7
First Quarter
Apr 15
Full
Apr 22
Last Quarter

Hourly Weather History & Observations

Time (CET) Temp. Dew Point Humidity Pressure Visibility Wind Dir Wind Speed Gust Speed Precip Events Conditions
12:00 AM 54 °F 49 °F 76% 30.04 in 6 mi WNW 5.8 mph - -   Partly Cloudy
1:00 AM 54 °F 49 °F 79% 30.04 in 6 mi WNW 5.8 mph - -  
2:00 AM 111 °F 106 °F 83% 29.98 in 6 mi NW 5.8 mph - -  
3:00 AM 50 °F 47 °F 85% 30.05 in 6 mi WNW 6.9 mph - -  
4:00 AM 50 °F 45 °F 78% 30.05 in 6 mi WNW 5.8 mph - -  
5:00 AM 50 °F 42 °F 66% 30.04 in 6 mi WNW 6.9 mph - -  
6:00 AM 50 °F 41 °F 62% 30.04 in 6 mi NNW 5.8 mph - -  
7:00 AM 54 °F 44 °F 60% 30.04 in 6 mi WNW 5.8 mph - -  
8:00 AM 54 °F 45 °F 63% 30.06 in 6 mi WNW 2.3 mph - -  
9:00 AM 55 °F 46 °F 62% 30.07 in 6 mi NW 6.9 mph - -  
10:00 AM 59 °F 48 °F 57% 30.09 in 6 mi NW 8.1 mph - -  
11:00 AM 61 °F 48 °F 52% 30.09 in 12 mi NNE 6.9 mph - -  
12:00 PM 61 °F 50 °F 59% 30.09 in 12 mi East 9.2 mph - -  
1:00 PM 60 °F 51 °F 64% 30.09 in 12 mi East 6.9 mph - -  
2:00 PM 61 °F 53 °F 66% 30.09 in 12 mi NE 5.8 mph - -  
3:00 PM 61 °F 52 °F 64% 30.09 in 12 mi NNW 4.6 mph - -  
4:00 PM 59 °F 51 °F 66% 30.09 in 12 mi WNW 6.9 mph - -  
5:00 PM 57 °F 51 °F 76% 30.09 in 12 mi WNW 5.8 mph - -  
7:00 PM 54 °F 46 °F 65% 30.09 in 12 mi NW 9.2 mph - -  
8:00 PM 54 °F 47 °F 71% 30.08 in 12 mi North 6.9 mph - -  
9:00 PM 54 °F 50 °F 80% 30.08 in 12 mi North 8.1 mph - -  
10:00 PM 54 °F 46 °F 66% 30.09 in 12 mi North 4.6 mph - -  
11:00 PM 55 °F 45 °F 60% 30.10 in 12 mi North 6.9 mph - -